Location: Remedello Sotto
(45.2500°N, 10.3667°E)
Time: 20:48:42
(UTC+00:00)

Cosmos 2058 Rocket - Pass Details

Date: 03 February 2023
Orbit: 610 x 637 km, 82.5° (Epoch: 22 March)

Event Time Altitude Azimuth Distance (km) Brightness Sun altitude
Rises 18:01:32 0° 353° (N) 2,897 6.5 -16.7°
Reaches altitude 10° 18:03:47 10° 357° (N) 1,991 5.6 -17.1°
Maximum altitude 18:08:10 66° 79° (E) 682 3.0 -17.8°
Drops below altitude 10° 18:12:33 10° 162° (SSE) 1,991 5.5 -18.6°
Sets 18:14:47 0° 166° (SSE) 2,898 6.4 -19.0°
